Time,TemperatureF,DewpointF,PressureIn,WindDirection,WindDirectionDegrees,WindSpeedMPH,WindSpeedGustMPH,Humidity,HourlyPrecipIn,Conditions,Clouds,dailyrainin,SoftwareType,DateUTC
2013-01-21 00:03:00,-8.0,-15.0,30.51,NW,307,6.0,15.0,69,0.00,,,0.00,,2013-01-21 06:03:00,
2013-01-21 00:12:00,-8.0,-15.0,30.51,NW,307,6.0,15.0,69,0.00,,,0.00,,2013-01-21 06:12:00,
2013-01-21 00:23:00,-8.0,-15.0,30.51,WNW,288,4.0,16.0,69,0.00,,,0.00,,2013-01-21 06:23:00,
2013-01-21 00:33:00,-8.0,-15.0,30.51,NNW,336,5.0,13.0,69,0.00,,,0.00,,2013-01-21 06:33:00,
2013-01-21 00:43:00,-8.0,-15.0,30.51,NNW,336,5.0,13.0,69,0.00,,,0.00,,2013-01-21 06:43:00,
2013-01-21 00:52:00,-8.0,-15.0,30.51,NNW,344,5.0,14.0,70,0.00,,,0.00,,2013-01-21 06:52:00,
2013-01-21 01:03:00,-8.0,-15.0,30.51,WNW,284,5.0,17.0,69,0.00,,,0.00,,2013-01-21 07:03:00,
2013-01-21 01:13:00,-8.0,-15.0,30.51,WNW,284,5.0,17.0,69,0.00,,,0.00,,2013-01-21 07:13:00,
2013-01-21 01:22:00,-8.0,-15.0,30.51,WNW,300,4.0,13.0,70,0.00,,,0.00,,2013-01-21 07:22:00,
2013-01-21 01:33:00,-8.0,-15.0,30.50,WSW,251,5.0,13.0,70,0.00,,,0.00,,2013-01-21 07:33:00,
2013-01-21 01:42:00,-8.0,-15.0,30.50,WSW,251,5.0,13.0,70,0.00,,,0.00,,2013-01-21 07:42:00,
2013-01-21 01:52:00,-8.0,-15.0,30.51,West,273,4.0,12.0,70,0.00,,,0.00,,2013-01-21 07:52:00,
2013-01-21 02:03:00,-8.0,-15.0,30.51,West,278,6.0,13.0,70,0.00,,,0.00,,2013-01-21 08:03:00,
2013-01-21 02:13:00,-8.0,-15.0,30.51,West,278,6.0,13.0,70,0.00,,,0.00,,2013-01-21 08:13:00,
2013-01-21 02:23:00,-8.0,-15.0,30.51,West,279,5.0,12.0,70,0.00,,,0.00,,2013-01-21 08:23:00,
2013-01-21 02:32:00,-8.0,-15.0,30.52,WNW,298,5.0,16.0,69,0.00,,,0.00,,2013-01-21 08:32:00,
2013-01-21 02:42:00,-8.0,-15.0,30.52,WNW,298,5.0,16.0,69,0.00,,,0.00,,2013-01-21 08:42:00,
2013-01-21 02:53:00,-9.0,-16.0,30.52,WSW,257,5.0,10.0,70,0.00,,,0.00,,2013-01-21 08:53:00,
2013-01-21 03:02:00,-9.0,-16.0,30.52,WNW,289,5.0,10.0,70,0.00,,,0.00,,2013-01-21 09:02:00,
2013-01-21 03:12:00,-9.0,-16.0,30.52,WNW,289,5.0,10.0,70,0.00,,,0.00,,2013-01-21 09:12:00,
2013-01-21 03:23:00,-9.0,-16.0,30.52,West,277,4.0,12.0,70,0.00,,,0.00,,2013-01-21 09:23:00,
2013-01-21 03:33:00,-9.0,-16.0,30.52,West,262,3.0,11.0,70,0.00,,,0.00,,2013-01-21 09:33:00,
2013-01-21 03:42:00,-9.0,-16.0,30.52,West,262,3.0,11.0,70,0.00,,,0.00,,2013-01-21 09:42:00,
2013-01-21 03:53:00,-9.0,-16.0,30.52,WNW,286,4.0,10.0,70,0.00,,,0.00,,2013-01-21 09:53:00,
2013-01-21 04:02:00,-9.0,-16.0,30.51,West,270,5.0,11.0,70,0.00,,,0.00,,2013-01-21 10:02:00,
2013-01-21 04:12:00,-9.0,-16.0,30.51,West,270,5.0,11.0,70,0.00,,,0.00,,2013-01-21 10:12:00,
2013-01-21 04:22:00,-9.0,-16.0,30.51,WSW,257,5.0,11.0,70,0.00,,,0.00,,2013-01-21 10:22:00,
2013-01-21 04:32:00,-9.0,-16.0,30.50,West,262,4.0,9.0,70,0.00,,,0.00,,2013-01-21 10:32:00,
2013-01-21 04:43:00,-9.0,-16.0,30.50,West,262,4.0,9.0,70,0.00,,,0.00,,2013-01-21 10:43:00,
2013-01-21 04:53:00,-9.0,-16.0,30.50,West,259,4.0,11.0,70,0.00,,,0.00,,2013-01-21 10:53:00,
2013-01-21 05:02:00,-9.0,-16.0,30.50,West,272,5.0,14.0,70,0.00,,,0.00,,2013-01-21 11:02:00,
2013-01-21 05:13:00,-9.0,-16.0,30.50,West,272,5.0,14.0,70,0.00,,,0.00,,2013-01-21 11:13:00,
2013-01-21 05:23:00,-9.0,-16.0,30.49,WSW,255,6.0,12.0,71,0.00,,,0.00,,2013-01-21 11:23:00,
2013-01-21 05:33:00,-9.0,-16.0,30.49,WSW,255,6.0,12.0,71,0.00,,,0.00,,2013-01-21 11:33:00,
2013-01-21 05:42:00,-9.0,-16.0,30.49,WSW,255,6.0,12.0,71,0.00,,,0.00,,2013-01-21 11:42:00,
2013-01-21 05:53:00,-10.0,-17.0,30.49,WSW,256,5.0,12.0,70,0.00,,,0.00,,2013-01-21 11:53:00,
2013-01-21 06:02:00,-10.0,-17.0,30.49,WSW,247,4.0,13.0,70,0.00,,,0.00,,2013-01-21 12:02:00,
2013-01-21 06:12:00,-10.0,-17.0,30.49,WSW,247,4.0,13.0,70,0.00,,,0.00,,2013-01-21 12:12:00,
2013-01-21 06:22:00,-10.0,-17.0,30.49,WSW,254,4.0,11.0,70,0.00,,,0.00,,2013-01-21 12:22:00,
2013-01-21 06:32:00,-10.0,-17.0,30.49,West,259,4.0,11.0,71,0.00,,,0.00,,2013-01-21 12:32:00,
2013-01-21 06:42:00,-10.0,-17.0,30.49,West,259,4.0,11.0,71,0.00,,,0.00,,2013-01-21 12:42:00,
2013-01-21 06:53:00,-10.0,-17.0,30.49,West,267,3.0,12.0,71,0.00,,,0.00,,2013-01-21 12:53:00,
2013-01-21 07:02:00,-10.0,-17.0,30.49,West,267,5.0,12.0,71,0.00,,,0.00,,2013-01-21 13:02:00,
2013-01-21 07:13:00,-10.0,-17.0,30.49,West,267,5.0,12.0,71,0.00,,,0.00,,2013-01-21 13:13:00,
2013-01-21 07:23:00,-10.0,-17.0,30.48,West,261,4.0,11.0,71,0.00,,,0.00,,2013-01-21 13:23:00,
2013-01-21 07:33:00,-10.0,-17.0,30.48,West,275,5.0,10.0,71,0.00,,,0.00,,2013-01-21 13:33:00,
2013-01-21 07:43:00,-10.0,-17.0,30.48,West,275,5.0,10.0,71,0.00,,,0.00,,2013-01-21 13:43:00,
2013-01-21 07:54:00,-10.0,-17.0,30.48,West,281,4.0,11.0,71,0.00,,,0.00,,2013-01-21 13:54:00,
2013-01-21 08:03:00,-10.0,-17.0,30.48,West,278,5.0,9.0,71,0.00,,,0.00,,2013-01-21 14:03:00,
2013-01-21 08:12:00,-10.0,-17.0,30.48,West,278,5.0,9.0,71,0.00,,,0.00,,2013-01-21 14:12:00,
2013-01-21 08:23:00,-10.0,-17.0,30.48,West,269,4.0,11.0,71,0.00,,,0.00,,2013-01-21 14:23:00,
2013-01-21 08:32:00,-10.0,-17.0,30.49,WSW,246,5.0,11.0,71,0.00,,,0.00,,2013-01-21 14:32:00,
2013-01-21 08:43:00,-10.0,-17.0,30.49,WSW,246,5.0,11.0,71,0.00,,,0.00,,2013-01-21 14:43:00,
2013-01-21 08:53:00,-9.0,-16.0,30.49,WNW,292,4.0,10.0,71,0.00,,,0.00,,2013-01-21 14:53:00,
2013-01-21 09:03:00,-9.0,-16.0,30.49,WNW,297,3.0,9.0,71,0.00,,,0.00,,2013-01-21 15:03:00,
2013-01-21 09:13:00,-9.0,-16.0,30.49,WNW,297,3.0,9.0,71,0.00,,,0.00,,2013-01-21 15:13:00,
2013-01-21 09:23:00,-8.0,-15.0,30.50,WSW,247,4.0,8.0,71,0.00,,,0.00,,2013-01-21 15:23:00,
2013-01-21 09:33:00,-8.0,-15.0,30.50,West,279,3.0,8.0,70,0.00,,,0.00,,2013-01-21 15:33:00,
2013-01-21 09:43:00,-8.0,-15.0,30.50,West,279,3.0,8.0,70,0.00,,,0.00,,2013-01-21 15:43:00,
2013-01-21 09:53:00,-7.0,-14.0,30.51,West,280,5.0,9.0,69,0.00,,,0.00,,2013-01-21 15:53:00,
2013-01-21 10:03:00,-7.0,-14.0,30.50,West,266,4.0,12.0,69,0.00,,,0.00,,2013-01-21 16:03:00,
2013-01-21 10:12:00,-7.0,-14.0,30.50,West,266,4.0,12.0,69,0.00,,,0.00,,2013-01-21 16:12:00,
2013-01-21 10:23:00,-6.0,-13.0,30.50,WNW,288,5.0,13.0,69,0.00,,,0.00,,2013-01-21 16:23:00,
2013-01-21 10:33:00,-6.0,-14.0,30.51,West,267,6.0,15.0,68,0.00,,,0.00,,2013-01-21 16:33:00,
2013-01-21 10:43:00,-6.0,-14.0,30.51,West,267,6.0,15.0,68,0.00,,,0.00,,2013-01-21 16:43:00,
2013-01-21 10:53:00,-6.0,-14.0,30.51,West,267,6.0,15.0,68,0.00,,,0.00,,2013-01-21 16:53:00,
2013-01-21 11:02:00,-5.0,-13.0,30.51,West,262,5.0,15.0,68,0.00,,,0.00,,2013-01-21 17:02:00,
2013-01-21 11:12:00,-5.0,-13.0,30.51,West,262,5.0,15.0,68,0.00,,,0.00,,2013-01-21 17:12:00,
2013-01-21 11:23:00,-4.0,-12.0,30.51,West,278,6.0,14.0,67,0.00,,,0.00,,2013-01-21 17:23:00,
2013-01-21 11:33:00,-3.0,-11.0,30.50,WSW,255,8.0,13.0,67,0.00,,,0.00,,2013-01-21 17:33:00,
2013-01-21 11:43:00,-3.0,-11.0,30.50,WSW,255,8.0,13.0,67,0.00,,,0.00,,2013-01-21 17:43:00,
2013-01-21 11:53:00,-3.0,-11.0,30.50,West,261,6.0,13.0,67,0.00,,,0.00,,2013-01-21 17:53:00,
2013-01-21 12:03:00,-3.0,-11.0,30.50,West,261,6.0,13.0,67,0.00,,,0.00,,2013-01-21 18:03:00,
2013-01-21 12:12:00,-3.0,-11.0,30.50,West,261,6.0,13.0,67,0.00,,,0.00,,2013-01-21 18:12:00,
2013-01-21 12:22:00,-2.0,-10.0,30.48,North,355,4.0,13.0,67,0.00,,,0.00,,2013-01-21 18:22:00,
2013-01-21 12:33:00,-1.0,-9.0,30.48,West,269,10.0,14.0,68,0.00,,,0.00,,2013-01-21 18:33:00,
2013-01-21 12:43:00,-1.0,-9.0,30.48,West,269,10.0,14.0,68,0.00,,,0.00,,2013-01-21 18:43:00,
2013-01-21 12:53:00,-1.0,-9.0,30.47,West,259,8.0,14.0,68,0.00,,,0.00,,2013-01-21 18:53:00,
2013-01-21 13:03:00,-1.0,-9.0,30.47,West,259,8.0,14.0,68,0.00,,,0.00,,2013-01-21 19:03:00,
2013-01-21 13:12:00,-1.0,-9.0,30.47,West,259,8.0,14.0,68,0.00,,,0.00,,2013-01-21 19:12:00,
2013-01-21 13:22:00,0.0,-8.0,30.45,West,263,9.0,15.0,67,0.00,,,0.00,,2013-01-21 19:22:00,
2013-01-21 13:33:00,0.0,-8.0,30.45,West,263,9.0,15.0,67,0.00,,,0.00,,2013-01-21 19:33:00,
2013-01-21 13:43:00,0.0,-8.0,30.45,West,263,9.0,15.0,67,0.00,,,0.00,,2013-01-21 19:43:00,
2013-01-21 13:53:00,0.0,-9.0,30.44,WSW,253,12.0,16.0,65,0.00,,,0.00,,2013-01-21 19:53:00,
2013-01-21 14:03:00,0.0,-9.0,30.44,WSW,250,9.0,16.0,65,0.00,,,0.00,,2013-01-21 20:03:00,
2013-01-21 14:12:00,0.0,-9.0,30.44,WSW,250,9.0,16.0,65,0.00,,,0.00,,2013-01-21 20:12:00,
2013-01-21 14:23:00,0.0,-9.0,30.44,WSW,250,9.0,16.0,65,0.00,,,0.00,,2013-01-21 20:23:00,
2013-01-21 14:33:00,1.0,-8.0,30.43,West,265,9.0,15.0,64,0.00,,,0.00,,2013-01-21 20:33:00,
2013-01-21 14:43:00,1.0,-8.0,30.43,West,265,9.0,15.0,64,0.00,,,0.00,,2013-01-21 20:43:00,
2013-01-21 14:53:00,2.0,-7.0,30.44,West,269,6.0,15.0,64,0.00,,,0.00,,2013-01-21 20:53:00,
2013-01-21 15:03:00,2.0,-7.0,30.43,West,277,9.0,16.0,64,0.00,,,0.00,,2013-01-21 21:03:00,
2013-01-21 15:12:00,2.0,-7.0,30.43,West,277,9.0,16.0,64,0.00,,,0.00,,2013-01-21 21:12:00,
2013-01-21 15:23:00,3.0,-6.0,30.43,West,265,8.0,15.0,65,0.00,,,0.00,,2013-01-21 21:23:00,
2013-01-21 15:33:00,3.0,-6.0,30.43,West,259,6.0,15.0,64,0.00,,,0.00,,2013-01-21 21:33:00,
2013-01-21 15:43:00,3.0,-6.0,30.43,West,259,6.0,15.0,64,0.00,,,0.00,,2013-01-21 21:43:00,
2013-01-21 15:53:00,3.0,-7.0,30.43,WSW,258,9.0,15.0,62,0.00,,,0.00,,2013-01-21 21:53:00,
2013-01-21 16:03:00,3.0,-6.0,30.43,West,276,5.0,13.0,64,0.00,,,0.00,,2013-01-21 22:03:00,
2013-01-21 16:12:00,3.0,-6.0,30.43,West,276,5.0,13.0,64,0.00,,,0.00,,2013-01-21 22:12:00,
2013-01-21 16:23:00,3.0,-6.0,30.43,WSW,254,7.0,13.0,65,0.00,,,0.00,,2013-01-21 22:23:00,
2013-01-21 16:33:00,2.0,-7.0,30.43,NW,304,8.0,15.0,65,0.00,,,0.00,,2013-01-21 22:33:00,
2013-01-21 16:43:00,2.0,-7.0,30.43,NW,304,8.0,15.0,65,0.00,,,0.00,,2013-01-21 22:43:00,
2013-01-21 16:53:00,2.0,-7.0,30.43,West,265,5.0,11.0,65,0.00,,,0.00,,2013-01-21 22:53:00,
2013-01-21 17:03:00,2.0,-7.0,30.43,WSW,257,7.0,12.0,65,0.00,,,0.00,,2013-01-21 23:03:00,
2013-01-21 17:12:00,2.0,-7.0,30.43,WSW,257,7.0,12.0,65,0.00,,,0.00,,2013-01-21 23:12:00,
2013-01-21 17:23:00,1.0,-8.0,30.43,West,269,6.0,11.0,66,0.00,,,0.00,,2013-01-21 23:23:00,
2013-01-21 17:33:00,1.0,-7.0,30.43,WNW,300,5.0,12.0,67,0.00,,,0.00,,2013-01-21 23:33:00,
2013-01-21 17:42:00,1.0,-7.0,30.43,WNW,300,5.0,12.0,67,0.00,,,0.00,,2013-01-21 23:42:00,
2013-01-21 17:53:00,0.0,-8.0,30.43,WSW,252,5.0,9.0,68,0.00,,,0.00,,2013-01-21 23:53:00,
2013-01-21 18:02:00,0.0,-8.0,30.43,West,271,3.0,8.0,69,0.00,,,0.00,,2013-01-22 00:02:00,
2013-01-21 18:12:00,0.0,-8.0,30.43,West,271,3.0,8.0,69,0.00,,,0.00,,2013-01-22 00:12:00,
2013-01-21 18:22:00,0.0,-8.0,30.43,West,271,3.0,8.0,69,0.00,,,0.00,,2013-01-22 00:22:00,
2013-01-21 18:32:00,0.0,-8.0,30.43,West,281,1.0,7.0,69,0.00,,,0.00,,2013-01-22 00:32:00,
2013-01-21 18:43:00,0.0,-8.0,30.43,West,281,1.0,7.0,69,0.00,,,0.00,,2013-01-22 00:43:00,
2013-01-21 18:53:00,0.0,-7.0,30.43,WSW,256,5.0,8.0,70,0.00,,,0.00,,2013-01-22 00:53:00,
2013-01-21 19:02:00,0.0,-7.0,30.43,WSW,256,5.0,8.0,70,0.00,,,0.00,,2013-01-22 01:02:00,
2013-01-21 19:12:00,0.0,-7.0,30.43,WSW,256,5.0,8.0,70,0.00,,,0.00,,2013-01-22 01:12:00,
2013-01-21 19:23:00,0.0,-8.0,30.44,WSW,248,5.0,12.0,69,0.00,,,0.00,,2013-01-22 01:23:00,
2013-01-21 19:32:00,0.0,-8.0,30.44,West,269,3.0,7.0,69,0.00,,,0.00,,2013-01-22 01:32:00,
2013-01-21 19:43:00,0.0,-8.0,30.44,West,269,3.0,7.0,69,0.00,,,0.00,,2013-01-22 01:43:00,
2013-01-21 19:52:00,0.0,-8.0,30.44,West,259,4.0,8.0,69,0.00,,,0.00,,2013-01-22 01:52:00,
2013-01-21 20:02:00,0.0,-8.0,30.43,WSW,257,5.0,7.0,69,0.00,,,0.00,,2013-01-22 02:02:00,
2013-01-21 20:12:00,0.0,-8.0,30.43,WSW,257,5.0,7.0,69,0.00,,,0.00,,2013-01-22 02:12:00,
2013-01-21 20:22:00,-1.0,-9.0,30.43,West,260,4.0,8.0,69,0.00,,,0.00,,2013-01-22 02:22:00,
2013-01-21 20:32:00,-1.0,-9.0,30.43,West,260,4.0,8.0,69,0.00,,,0.00,,2013-01-22 02:32:00,
2013-01-21 20:42:00,-1.0,-9.0,30.43,West,260,4.0,8.0,69,0.00,,,0.00,,2013-01-22 02:42:00,
2013-01-21 20:53:00,-1.0,-9.0,30.43,WSW,254,3.0,6.0,69,0.00,,,0.00,,2013-01-22 02:53:00,
2013-01-21 21:02:00,-1.0,-9.0,30.43,WNW,285,1.0,5.0,68,0.00,,,0.00,,2013-01-22 03:02:00,
2013-01-21 21:12:00,-1.0,-9.0,30.43,WNW,285,1.0,5.0,68,0.00,,,0.00,,2013-01-22 03:12:00,
2013-01-21 21:22:00,-1.0,-9.0,30.43,WNW,285,1.0,5.0,68,0.00,,,0.00,,2013-01-22 03:22:00,
2013-01-21 21:32:00,-1.0,-9.0,30.43,West,265,3.0,6.0,67,0.00,,,0.00,,2013-01-22 03:32:00,
2013-01-21 21:42:00,-1.0,-9.0,30.43,West,265,3.0,6.0,67,0.00,,,0.00,,2013-01-22 03:42:00,
2013-01-21 21:53:00,-2.0,-11.0,30.44,West,266,4.0,7.0,66,0.00,,,0.00,,2013-01-22 03:53:00,
2013-01-21 22:02:00,-2.0,-11.0,30.44,WSW,257,5.0,7.0,65,0.00,,,0.00,,2013-01-22 04:02:00,
2013-01-21 22:12:00,-2.0,-11.0,30.44,WSW,257,5.0,7.0,65,0.00,,,0.00,,2013-01-22 04:12:00,
2013-01-21 22:22:00,-2.0,-11.0,30.45,WSW,257,2.0,5.0,64,0.00,,,0.00,,2013-01-22 04:22:00,
2013-01-21 22:32:00,-3.0,-12.0,30.45,WNW,301,1.0,5.0,64,0.00,,,0.00,,2013-01-22 04:32:00,
2013-01-21 22:42:00,-3.0,-12.0,30.45,WNW,301,1.0,5.0,64,0.00,,,0.00,,2013-01-22 04:42:00,
2013-01-21 22:52:00,-3.0,-13.0,30.45,WNW,302,0.0,1.0,62,0.00,,,0.00,,2013-01-22 04:52:00,
2013-01-21 23:04:00,-3.0,-12.0,30.45,WNW,302,0.0,3.0,63,0.00,,,0.00,,2013-01-22 05:04:00,
2013-01-21 23:12:00,-3.0,-12.0,30.45,WNW,302,0.0,3.0,63,0.00,,,0.00,,2013-01-22 05:12:00,
2013-01-21 23:22:00,-3.0,-12.0,30.46,WNW,302,0.0,2.0,63,0.00,,,0.00,,2013-01-22 05:22:00,
2013-01-21 23:32:00,-3.0,-12.0,30.46,WNW,302,0.0,2.0,63,0.00,,,0.00,,2013-01-22 05:32:00,
2013-01-21 23:42:00,-4.0,-14.0,30.45,WNW,302,0.0,0.0,62,0.00,,,0.00,,2013-01-22 05:42:00,
2013-01-21 23:52:00,-5.0,-15.0,30.46,WNW,302,0.0,2.0,61,0.00,,,0.00,,2013-01-22 05:52:00,